Flag for Switzerland Weather past 2 weeks in Illnau-Effretikon, Zurich, Switzerland

Now
59 °F

Cool.


Feels Like: 59 °F
Forecast: 56 / 70 °F
Wind: 5 mph from West

Location: Zurich Town / Ville.

Current Time: Sep 2, 2015 at 1:03:03 AM

Latest Report: Sep 1, 2015 at 10:00 PM


Visibility: N/A

Pressure: 30.06 "Hg (28.29 "Hg at 514m altitude)

Humidity: 95%

Dew point: 58 °F

Location of Illnau-EffretikonLocation

Historic Weather in Illnau-Effretikon — Graph

°F

Illnau-Effretikon temperature yesterday

Maximum temperature yesterday: 72 °F (at 12:00 AM)
Minimum temperature yesterday: 59 °F (at 10:00 PM)
Average temperature yesterday: 67 °F

Past Weeks' High & Low Weather Summary

 TemperatureHumidityPressure
High89 °F (Aug 30, 4:00 PM)98% (Aug 24, 2:00 AM)30.26 "Hg (Aug 24, 2:00 AM)
Low52 °F (Aug 20, 7:00 AM)23% (Aug 30, 3:00 PM)29.70 "Hg (Aug 24, 2:00 PM)
Average67 °F69%30.01 "Hg
* Reported Aug 17 10:00 PM — Sep 1 10:00 PM, Illnau-Effretikon, Weather by CustomWeather, © 2015

Note: Actual official high and low records may vary slightly from our data, if they occured in-between our weather recording intervals... More about our weather records

Advertising

Illnau-Effretikon weather history for previous 24 hours

 ConditionsComfort  
Time TempWeatherWind HumidityBarometerVisibility
10:00 PM
Tue, Sep 1
59 °FCool.5 mph95%30.06 "HgN/A
9:00 PM60 °FCool.5 mph97%30.05 "HgN/A
8:00 PM61 °FCool.3 mph97%30.03 "HgN/A
7:00 PM61 °FCool.6 mph96%30.00 "HgN/A
6:00 PM62 °FMild.10 mph96%29.97 "HgN/A
5:00 PM64 °FMild.5 mph95%29.93 "HgN/A
4:00 PM64 °FMild.8 mph95%29.93 "HgN/A
3:00 PM64 °FMild.7 mph93%29.93 "HgN/A
2:00 PM65 °FOvercast.14 mph83%29.90 "HgN/A
1:00 PM71 °FMild.14 mph60%29.87 "HgN/A
12:00 PM69 °FMild.3 mph63%29.88 "HgN/A
11:00 AM70 °FMild.13 mph64%29.88 "HgN/A
10:00 AM71 °FMild.2 mph64%29.83 "HgN/A
9:00 AM70 °FMild.1 mph68%29.81 "HgN/A
8:00 AM67 °FMild.1 mph74%29.84 "HgN/A
7:00 AM66 °FMild.1 mph72%29.85 "HgN/A
6:00 AM67 °FMild.1 mph74%29.86 "HgN/A
4:00 AM69 °FMild.2 mph71%29.88 "HgN/A
3:00 AM69 °FMild.1 mph66%29.89 "HgN/A
2:00 AM70 °FMild.1 mph64%29.90 "HgN/A
1:00 AM72 °FMild.3 mph58%29.89 "HgN/A
Weather by CustomWeather, © 2015

See weather overviewHow to use our weather pages